Tracking 19638 objects as of 19-May-2019
HD Live streaming from Space Station
objects crossing your sky now

IRIDIUM 8


IRIDIUM 8 is no longer on orbit
IRIDIUM 8 is classified as:


NORAD ID: 24792
Int'l Code: 1997-020A
Perigee: N/A
Apogee: N/A
Inclination: N/A
Period: N/A
Semi major axis: N/A
RCS: N/A
Launch date: May 5, 1997
Source: United States (US)
Launch site: AIR FORCE WESTERN TEST RANGE (AFWTR)
Decay date: 2017-11-24
aabbcc
Your satellite tracking list
Your tracking list is empty




NASA's NSSDC Master Catalog

Two Line Element Set (TLE):
1 24792U 97020A   17328.50355308  .99999999 -17679-5  36908-3 0  9999
2 24792  86.3363 249.3166 0025759 119.9357 245.3296 16.58206397 76471
Source of the keplerian elements: AFSPC